Location: Newark
(12.4436°N, 0.6167°W)
Time: 04:19:00
(UTC+00:00)

Vanguard 2 - Pass Details

Date: 16 December 2019
Orbit: 553 x 2938 km, 32.9° (Epoch: 18 January)

Event Time Altitude Azimuth Distance (km) Brightness Sun altitude
Rises 01:04:10 0° 284° (WNW) 5,272 - -70.9°
Reaches altitude 10° 01:07:45 10° 294° (WNW) 4,592 - -70.2°
Maximum altitude 01:20:01 35° 356° (N) 3,717 - -67.7°
Exits shadow 01:30:56 19° 45° (NE) 4,967 11.6 -65.4°
Drops below altitude 10° 01:35:34 10° 56° (NE) 5,766 12.0 -64.4°
Sets 01:40:50 0° 65° (ENE) 6,730 12.5 -63.2°
